Location: Beverley
(50.2667°N, 107.9667°W)
Time: 07:20:37
(UTC+00:00)

EO-79 - Pass Details

Date: 01 July 2022
Orbit: 588 x 603 km, 98.0° (Epoch: 17 August)

Event Time Altitude Azimuth Distance (km) Brightness Sun altitude
Rises 08:59:03 0° 15° (NNE) 2,857 ? -13.2°
Reaches altitude 10° 09:01:14 10° 16° (NNE) 1,952 ? -13.0°
Maximum altitude 09:05:28 78° 103° (ESE) 622 ? -12.7°
Enters shadow 09:08:37 18° 189° (S) 1,504 ? -12.5°
